Location: Caltech
(34.1382°N, 118.1253°W)
Time: 15:15:34
(UTC-07:00)

Oscar 19 - Visible Passes

Search period start: 01 August 2015 00:00
Search period end: 11 August 2015 00:00
Orbit: 774 x 791 km, 98.5° (Epoch: 31 July)

Date Brightness Start Highest point End Pass type
(mag) Time Alt. Az. Time Alt. Az. Time Alt. Az.
01 Aug 13.2 01:15:22 10° NE 01:16:08 12° ENE 01:16:08 12° ENE visible
01 Aug 11.7 02:53:12 10° N 02:56:42 37° NNW 02:56:42 37° NNW visible
02 Aug 11.9 02:21:19 10° NNE 02:24:31 39° NNE 02:24:31 39° NNE visible
02 Aug 12.9 04:04:30 10° NW 04:05:05 10° WNW 04:05:05 10° WNW visible
03 Aug 12.6 01:49:56 10° NNE 01:52:21 25° NE 01:52:21 25° NE visible
03 Aug 12.4 03:29:57 10° NNW 03:32:55 20° NW 03:32:55 20° NW visible
04 Aug 13.2 01:19:17 10° NE 01:20:10 13° ENE 01:20:10 13° ENE visible
04 Aug 11.9 02:57:27 10° N 03:00:44 33° NNW 03:00:44 33° NNW visible
05 Aug 12.0 02:25:30 10° NNE 02:28:33 37° NNE 02:28:33 37° NNE visible
06 Aug 12.6 01:54:02 10° NNE 01:56:23 25° NE 01:56:23 25° NE visible
06 Aug 12.5 03:34:18 10° NNW 03:36:56 19° NW 03:36:56 19° NW visible
07 Aug 13.2 01:23:15 10° NE 01:24:12 14° NE 01:24:12 14° NE visible
07 Aug 12.0 03:01:42 10° N 03:04:46 30° NNW 03:04:46 30° NNW visible
08 Aug 12.1 02:29:41 10° N 02:32:35 34° N 02:32:35 34° N visible
09 Aug 12.6 01:58:08 10° NNE 02:00:24 25° NE 02:00:24 25° NE visible
09 Aug 12.6 03:38:41 10° NNW 03:40:57 17° NW 03:40:57 17° NW visible
10 Aug 13.2 01:27:15 10° NE 01:28:13 14° NE 01:28:13 14° NE visible
10 Aug 12.2 03:05:57 10° N 03:08:47 27° NNW 03:08:47 27° NNW visible
